FW4110 Weather Reports


time (UTC)temp
C
wind
direction
speed
KPH
gust
KPH
rain 1hr
cm
rain 24hr
cm
rain mn
cm
humidity
%
barometer
mb
20260505083033 20 190 0.0 0.0 0.00 0.03 0.00 80 1007.3
20260505081531 20 154 3.2 6.4 0.00 0.03 0.00 79 1007.5
20260505080027 20 179 1.6 6.4 0.00 0.03 0.00 79 1007.6
20260505074525 20 77 6.4 12.9 0.00 0.03 0.00 79 1008.0
20260505073032 20 245 3.2 16.1 0.00 0.03 0.00 79 1007.1
20260505071518 20 289 1.6 12.9 0.00 0.03 0.00 78 1007.3
20260505070026 20 191 0.0 17.7 0.00 0.03 0.00 78 1007.1
20260505064512 21 227 1.6 12.9 0.00 0.03 0.00 77 1006.8
20260505063011 21 239 3.2 20.9 0.00 0.03 0.00 77 1006.9
20260505061506 21 169 6.4 14.5 0.00 0.03 0.00 76 1006.7
20260505060003 21 196 3.2 16.1 0.00 0.03 0.00 76 1006.8
20260505054611 21 268 6.4 17.7 0.00 0.03 0.00 75 1006.7
20260505053100 21 285 4.8 17.7 0.00 0.03 0.00 75 1006.4
20260505051552 21 59 6.4 20.9 0.00 0.03 0.00 74 1006.3
20260505041551 22 177 4.8 22.5 0.00 0.03 0.03 74 1006.4
20260505040048 22 182 3.2 12.9 0.00 0.03 0.03 73 1006.7
20260505034536 22 155 3.2 17.7 0.00 0.03 0.03 73 1006.8
20260505033035 22 203 3.2 14.5 0.00 0.03 0.03 73 1006.7
20260505031540 22 265 1.6 12.9 0.00 0.03 0.03 72 1006.7
20260505030029 22 261 3.2 12.9 0.00 0.03 0.03 72 1006.6
20260505024527 22 154 1.6 9.7 0.00 0.03 0.03 72 1006.2
20260505023025 22 175 1.6 11.3 0.00 0.03 0.03 72 1005.9
20260505021524 22 280 0.0 6.4 0.00 0.03 0.03 71 1005.5
20260505020021 23 216 1.6 9.7 0.00 0.03 0.03 70 1005.3
20260505014526 23 172 1.6 8.0 0.00 0.03 0.03 69 1005.1
20260505013017 23 306 1.6 9.7 0.00 0.03 0.03 68 1005.0
20260505011514 24 216 1.6 11.3 0.00 0.03 0.03 68 1004.8
20260505010012 25 335 1.6 9.7 0.00 0.03 0.03 67 1004.7
20260505004510 25 242 1.6 11.3 0.00 0.03 0.03 67 1004.6
20260505003007 26 200 3.2 12.9 0.00 0.03 0.03 65 1004.3
20260505001505 26 147 4.8 16.1 0.00 0.03 0.03 63 1004.3
20260505000006 26 273 1.6 16.1 0.00 0.03 0.03 63 1004.4
20260504234559 26 258 3.2 19.3 0.00 0.03 0.03 63 1004.3
20260504233108 27 249 4.8 20.9 0.00 0.03 0.03 62 1004.5
20260504231555 27 277 8.0 25.7 0.00 0.03 0.03 61 1004.6
20260504230052 27 216 8.0 27.4 0.00 0.03 0.03 62 1004.7
20260504224556 27 5 6.4 24.1 0.00 0.03 0.03 60 1004.6
20260504223100 28 187 6.4 22.5 0.00 0.03 0.03 59 1004.7
20260504221545 28 269 8.0 22.5 0.00 0.03 0.03 60 1004.9
20260504220043 28 332 4.8 16.1 0.00 0.03 0.03 60 1004.8
20260504214541 28 239 4.8 20.9 0.00 0.03 0.03 60 1004.8
20260504213050 28 231 12.9 24.1 0.00 0.03 0.03 59 1004.8
20260504211535 28 150 8.0 24.1 0.00 0.03 0.03 60 1004.6
20260504210029 27 302 4.8 17.7 0.00 0.03 0.03 63 1004.7
20260504204536 27 151 9.7 24.1 0.00 0.03 0.03 63 1005.0
20260504203023 26 258 6.4 22.5 0.00 0.03 0.03 67 1005.2
20260504201514 25 275 9.7 24.1 0.03 0.03 0.03 69 1005.3
20260504200010 24 227 4.8 14.5 0.03 0.03 0.03 75 1005.3
20260504194507 22 246 3.2 12.9 0.03 0.03 0.03 81 1005.8
20260504193002 21 135 9.7 14.5 0.03 0.03 0.03 80 1005.8
20260504191603 21 284 1.6 6.4 0.00 0.00 0.00 80 1006.9
20260504190057 21 169 0.0 1.6 0.00 0.00 0.00 84 1006.8
20260504184558 22 296 0.0 1.6 0.00 0.00 0.00 78 1007.0
20260504183054 23 296 0.0 0.0 0.00 0.00 0.00 72 1006.9
20260504181554 24 299 0.0 4.8 0.00 0.00 0.00 68 1007.0
20260504180148 24 301 1.6 8.0 0.00 0.00 0.00 66 1006.9
20260504174548 24 183 4.8 11.3 0.00 0.00 0.00 65 1007.0
20260504173043 25 282 4.8 16.1 0.00 0.00 0.00 64 1007.2
20260504171542 24 133 6.4 19.3 0.00 0.00 0.00 67 1007.2